Hourly Data Report for July 02, 2017

TORONTO CITY
ONTARIO

43°40'00.000" N
79°24'00.000" W
112.50 m
6158355
71508
XTO

Download Data

Hourly Data (July 2017)
Hourly Data Report for July 2, 2017
TIME
LST
Temp Definition
°C
Dew Point Definition
°C
Rel Hum Definition
%
Precip. Amount Definition
mm

Wind Dir Definition
10's deg

Wind Spd Definition
km/h
Visibility Definition
km
Stn Press Definition
kPa
Hmdx Definition


Wind Chill Definition


Weather Definition


00:00 17.9 13.1 74 0.0 LegendMM LegendMM   99.99     LegendNANA
01:00 17.1 12.9 76 0.0 LegendMM LegendMM   99.98     LegendNANA
02:00 16.3 12.8 80 0.0 LegendMM LegendMM   99.99     LegendNANA
03:00 15.6 13.1 85 0.0 LegendMM LegendMM   100.01     LegendNANA
04:00 16.2 12.9 81 0.0 LegendMM LegendMM   100.02     LegendNANA
05:00 15.1 12.6 85 0.0 LegendMM LegendMM   100.05     LegendNANA
06:00 16.4 13.0 80 0.0 LegendMM LegendMM   100.09     LegendNANA
07:00 18.4 13.4 73 0.0 LegendMM LegendMM   100.14     LegendNANA
08:00 19.8 13.3 66 0.0 LegendMM LegendMM   100.14     LegendNANA
09:00 20.5 12.6 60 0.0 LegendMM LegendMM   100.16     LegendNANA
10:00 21.7 14.6 64 0.0 LegendMM LegendMM   100.17 25   LegendNANA
11:00 22.1 13.8 59 0.0 LegendMM LegendMM   100.15 25   LegendNANA
12:00 23.2 14.3 57 0.0 LegendMM LegendMM   100.10 27   LegendNANA
13:00 23.4 14.6 57 0.0 LegendMM LegendMM   99.99 27   LegendNANA
14:00 23.9 16.8 65 1.3 LegendMM LegendMM   99.99 29   LegendNANA
15:00 25.2 15.0 53 0.0 LegendMM LegendMM   99.95 29   LegendNANA
16:00 27.5 12.9 41 0.0 LegendMM LegendMM   99.92 30   LegendNANA
17:00 27.3 12.4 40 0.0 LegendMM LegendMM   99.92 30   LegendNANA
18:00 26.6 12.5 42 0.0 LegendMM LegendMM   99.91 29   LegendNANA
19:00 26.4 12.5 42 0.0 LegendMM LegendMM   99.90 29   LegendNANA
20:00 20.7 13.2 62 0.0 LegendMM LegendMM   99.98     LegendNANA
21:00 20.1 13.6 66 0.0 LegendMM LegendMM   100.01     LegendNANA
22:00 19.5 14.0 71 0.0 LegendMM LegendMM   100.06     LegendNANA
23:00 19.0 14.1 73 0.0 LegendMM LegendMM   100.12     LegendNANA

Notes on Data Quality.

Legend

  • E = Estimated
  • M = Missing
  • NA = Not Available*
  • [empty] = Indicates an unobserved value
Date modified: